www.pogodaiklimat.ru

Погода и климат >> Архив погоды >> Испания >> Жерона


ПОГОДА в Жероне

  • Прогноз погоды в Жероне
  • Монитор погоды в Жероне

АРХИВ ПОГОДЫ в Жероне

Время (UTC), дата Ветер
(напр.,м/с)
 
Видим.   Явления Облачность Т
(С)
Тd
(С)
f
(%)
Тe
(С)
Тes
(С)
Комфортность P
(гПа)
Po
(гПа)
Тmin
(С)
Tmax
(С)
R
(мм)
R24
(мм)
S
(см)
07 12.08 СВ 2 н/о н/о +19.5 +16.9 85 +22 +22 комфорт 1013.9 998.9
08 12.08 С 3 н/о н/о +20.4 +17.8 85 +24 +24 комфорт 1014.3 999.3
09 12.08 СВ 3 15 км 8/1 1000 м
[St Ac As]
+22.1 +17.2 74 +27 +30 душно 1014.9 1000.0
10 12.08 СВ 4 н/о н/о +24.2 +16.4 62 +28 +28 душно 1015.1 1000.3
11 12.08 В 3 н/о н/о +25.7 +15.3 53 +29 +29 душно 1014.9 1000.2
12 12.08 СВ 3 20 км 8/3 1000 м
[Cu hum Ac As Ci fib]
+28.4 +14.0 41 +30 +37 жарко 1014.6 1000.0
13 12.08 В 5 н/о н/о +27.5 +12.2 39 +29 +29 жарко 1014.6 999.9
14 12.08 СВ 6 н/о н/о +28.9 +12.0 35 +30 +30 жарко 1014.5 999.9
15 12.08 СВ 6 30 км 6/5 1000 м
[Sc Ac As Ci fib]
+28.6 +11.3 34 +29 +31 жарко 1014.4 999.8
16 12.08 СВ 9 н/о н/о +27.4 +11.2 36 +28 +28 жарко 1014.7 1000.0
17 12.08 СВ 6 н/о н/о +26.2 +12.0 41 +28 +28 жарко 1014.8 1000.1
18 12.08 СВ 5 30 км 4/4 1000 м
[Sc Ac As Ci fib]
+24.6 +11.5 44 +26 +26 жарко 1015.3 1000.5 +29.0
19 12.08 В 3 н/о н/о +22.8 +10.1 45 +25 +25 комфорт 1016.0 1001.1
20 12.08 СВ 4 н/о н/о +21.6 +8.5 43 +23 +23 комфорт 1017.1 1002.1
21 12.08 СВ 4 н/о н/о +20.5 +9.7 50 +22 +22 комфорт 1017.9 1002.8
22 12.08 С 1 н/о н/о +19.4 +10.8 57 +22 +22 комфорт 1018.2 1003.1
23 12.08 С 1 н/о н/о +18.8 +10.6 59 +21 +21 комфорт 1018.6 1003.4
00 13.08 штиль 0 н/о н/о +17.7 +10.8 64 +18 +18 1018.7 1003.5
01 13.08 С 1 н/о н/о +17.0 +11.0 68 +18 +18 1018.5 1003.3
02 13.08 СЗ 2 н/о н/о +16.2 +10.9 71 +16 +16 1018.6 1003.3
03 13.08 штиль 0 н/о н/о +15.2 +11.3 78 +15 +15 1018.4 1003.1
04 13.08 С 2 н/о н/о +15.5 +10.9 74 +15 +15 1018.3 1003.0
05 13.08 С 4 н/о н/о +15.7 +11.3 75 +15 +15 1018.2 1002.9
06 13.08 С 4 н/о н/о +17.4 +11.7 69 +17 +17 1018.8 1003.6 +14.5
07 13.08 СВ 2 н/о н/о +18.3 +11.9 66 +19 +19 1019.1 1003.9
08 13.08 СВ 4 н/о н/о +20.5 +12.1 59 +23 +23 комфорт 1018.9 1003.8
09 13.08 СВ 3 н/о н/о +22.9 +12.1 51 +26 +26 жарко 1018.3 1003.4
10 13.08 Ю 1 н/о н/о +24.9 +10.9 41 +26 +26 жарко 1017.9 1003.1
11 13.08 Ю 2 н/о н/о +26.7 +11.1 38 +28 +28 жарко 1017.1 1002.4
12 13.08 Ю 2 н/о н/о +27.2 +10.3 35 +28 +28 жарко 1016.3 1001.6
13 13.08 Ю 5 н/о н/о +29.0 +12.1 35 +30 +30 жарко 1015.9 1001.3
14 13.08 Ю 7 н/о н/о +28.2 +13.7 41 +30 +30 жарко 1015.7 1001.1
15 13.08 Ю 8 н/о н/о +27.1 +15.5 49 +30 +30 душно 1016.0 1001.3
16 13.08 Ю 6 н/о н/о +26.0 +15.7 53 +29 +29 душно 1015.9 1001.2
17 13.08 Ю 5 н/о н/о +24.9 +16.1 58 +28 +28 жарко 1016.2 1001.4
18 13.08 Ю 5 30 км 3/1 1500 м
[Cu Sc Ci fib]
+23.8 +16.1 62 +27 +27 жарко 1016.3 1001.5 +29.3
19 13.08 Ю 3 н/о н/о +22.3 +16.3 69 +27 +27 душно 1017.1 1002.2
20 13.08 ЮВ 2 н/о н/о +21.5 +15.6 69 +25 +25 комфорт 1017.8 1002.8
21 13.08 В 3 н/о н/о +21.7 +12.8 57 +24 +24 комфорт 1018.2 1003.2
22 13.08 В 2 н/о н/о +20.3 +11.0 55 +23 +23 комфорт 1018.4 1003.3
23 13.08 СВ 1 н/о н/о +19.3 +11.6 61 +22 +22 комфорт 1018.6 1003.5
00 14.08 С 3 н/о н/о +19.0 +11.1 60 +20 +20 1018.6 1003.5
01 14.08 С 3 н/о н/о +19.0 +10.3 57 +20 +20 1018.5 1003.4
02 14.08 С 2 н/о н/о +18.7 +10.0 57 +20 +20 1018.4 1003.2
03 14.08 С 2 н/о н/о +18.7 +10.8 60 +20 +20 1018.0 1002.9
04 14.08 СЗ 2 н/о н/о +17.4 +10.8 65 +18 +18 1017.8 1002.6
05 14.08 СВ 2 н/о н/о +16.4 +10.7 69 +17 +17 1018.1 1002.8
06 14.08 штиль 0 н/о н/о +17.6 +11.6 68 +18 +18 1018.6 1003.4 +16.2
07 14.08 СВ 2 н/о н/о +19.9 +10.8 56 +22 +22 комфорт 1018.3 1003.2
08 14.08 СВ 2 н/о н/о +22.6 +11.3 49 +25 +25 комфорт 1018.2 1003.2
09 14.08 СВ 2 30 км 3/1
[Cu hum Ci sp]
+24.9 +13.1 48 +27 +37 жарко 1017.9 1003.1
10 14.08 В 2 н/о н/о +26.4 +13.5 45 +28 +28 жарко 1017.6 1002.9
11 14.08 Ю 2 н/о н/о +27.9 +13.2 40 +30 +30 жарко 1017.1 1002.4
12 14.08 Ю 3 30 км 4/1 1500 м
[Cu hum Ci ing]
+29.6 +13.4 37 +31 +43 жарко 1016.5 1001.9
13 14.08 ЮЗ 4 н/о н/о +28.6 +14.5 42 +31 +31 жарко 1016.1 1001.5
14 14.08 Ю 6 н/о н/о +28.2 +15.1 45 +31 +31 душно 1015.8 1001.2
15 14.08 Ю 6 н/о н/о +27.6 +15.6 48 +31 +31 душно 1016.0 1001.3
16 14.08 Ю 6 н/о н/о +27.2 +16.2 51 +31 +31 душно 1015.9 1001.2
17 14.08 Ю 5 н/о н/о +26.3 +16.6 55 +30 +30 душно 1016.0 1001.3
18 14.08 Ю 5 30 км 1/1 1500 м
[Cu hum]
+24.7 +17.2 63 +29 +29 душно 1016.5 1001.7 +29.8
19 14.08 Ю 4 н/о н/о +23.2 +17.5 70 +29 +29 душно 1016.5 1001.6
20 14.08 ЮЗ 2 н/о н/о +22.0 +17.6 76 +27 +27 душно 1017.2 1002.3
21 14.08 ЮЗ 2 н/о н/о +21.3 +17.7 80 +25 +25 комфорт 1017.7 1002.7
22 14.08 штиль 0 н/о н/о +19.5 +16.7 84 +21 +21 комфорт 1018.0 1002.9
23 14.08 штиль 0 н/о н/о +18.4 +16.3 88 +19 +19 1017.9 1002.8
00 15.08 З 1 н/о н/о +17.9 +16.0 89 +19 +19 1017.9 1002.7
01 15.08 штиль 0 н/о н/о +17.2 +15.8 91 +17 +17 1017.8 1002.6
02 15.08 штиль 0 н/о н/о +16.8 +15.1 90 +17 +17 1017.6 1002.4
03 15.08 штиль 0 н/о н/о +16.3 +15.3 94 +16 +16 1017.3 1002.1
04 15.08 С 2 н/о н/о +16.3 +15.5 95 +16 +16 1017.4 1002.2
05 15.08 штиль 0 н/о н/о +15.7 +14.6 93 +15 +15 1018.0 1002.7
06 15.08 штиль 0 н/о н/о +18.2 +16.0 87 +19 +19 1018.1 1003.0 +15.6
07 15.08 ЮЗ 2 н/о н/о +21.4 +15.5 69 +25 +25 комфорт 1018.5 1003.5
08 15.08 ЮВ 1 н/о н/о +25.0 +15.9 57 +28 +28 жарко 1018.2 1003.4
09 15.08 Ю 4 25 км 3/3 600 м
[]
+27.1 +17.8 57 +32 +37 очень
душно
1017.9 1003.2
10 15.08 ЮЗ 3 н/о н/о +28.6 +18.0 53 +33 +33 очень
душно
1017.3 1002.7
11 15.08 Ю 5 н/о н/о +29.9 +19.2 53 +36 +36 очень
душно
1016.7 1002.2
12 15.08 Ю 6 30 км 9/9 1000 м
[Cu med, cong As op]
+28.2 +20.1 61 +34 +35 очень
душно
1016.6 1002.0
13 15.08 ЮВ 5 н/о осадки н/о +24.1 +21.0 83 +30 +30 очень
душно
1017.0 1002.2
14 15.08 ЮВ 6 н/о н/о +24.8 +18.8 69 +30 +30 душно 1017.2 1002.4
15 15.08 ЮВ 3 10 км 10/10 <50 м
[]
+23.9 +18.0 70 +28 +28 душно 1017.3 1002.5 1
16 15.08 В 2 н/о в посл. час осадки н/о +22.8 +19.0 79 +29 +29 очень
душно
1017.4 1002.5
17 15.08 С 2 н/о н/о +22.6 +19.9 85 +29 +29 очень
душно
1017.7 1002.8
18 15.08 С 2 15 км 10/10 300 м
[Cu Sc]
+22.5 +19.5 83 +29 +29 очень
душно
1018.3 1003.4 +30.9 1
19 15.08 штиль 0 н/о н/о +21.9 +19.8 88 +28 +28 душно 1018.6 1003.7
20 15.08 СЗ 1 н/о н/о +21.4 +19.9 91 +26 +26 душно 1019.4 1004.4
21 15.08 СЗ 2 15 км дымка 6/6 1000 м
[Cu Sc]
+21.1 +19.4 90 +26 +26 душно 1019.6 1004.6
22 15.08 штиль 0 н/о в посл. час осадки н/о +21.1 +19.6 91 +26 +26 душно 1019.6 1004.6
23 15.08 СВ 2 н/о н/о +21.0 +20.0 94 +27 +27 душно 1019.5 1004.5
00 16.08 штиль 0 н/о н/о +21.0 +19.8 93 +26 +26 душно 1019.0 1004.0 0.0
01 16.08 штиль 0 н/о н/о +20.9 +19.9 94 +25 +25 комфорт 1018.8 1003.8
02 16.08 штиль 0 н/о н/о +20.1 +19.1 94 +23 +23 комфорт 1018.1 1003.1
03 16.08 штиль 0 н/о н/о +19.0 +18.2 95 +21 +21 комфорт 1017.9 1002.8
04 16.08 СЗ 1 н/о н/о +18.7 +18.2 97 +21 +21 комфорт 1018.0 1002.9
05 16.08 С 2 н/о н/о +19.2 +15.8 81 +22 +22 комфорт 1018.1 1003.0
06 16.08 С 2 н/о н/о +19.8 +15.9 78 +23 +23 комфорт 1018.4 1003.3 +18.6
07 16.08 СВ 2 н/о н/о +21.0 +16.1 74 +25 +25 комфорт 1018.7 1003.7
08 16.08 З 1 н/о н/о +23.7 +15.6 60 +27 +27 жарко 1018.5 1003.6
09 16.08 Ю 4 н/о н/о +25.9 +17.7 61 +30 +30 душно 1018.0 1003.2
10 16.08 Ю 6 н/о н/о +27.3 +18.9 60 +32 +32 очень
душно
1017.3 1002.6
11 16.08 Ю 8 н/о н/о +29.0 +19.5 57 +35 +35 очень
душно
1016.4 1001.8
12 16.08 ЮЗ 9 н/о н/о +29.7 +19.1 53 +35 +35 очень
душно
1015.5 1001.0
13 16.08 Ю 9 н/о н/о +30.5 +18.8 50 +36 +36 очень
душно
1014.7 1000.2
14 16.08 Ю 10 н/о н/о +31.0 +18.6 48 +36 +36 очень
душно
1013.9 999.5
15 16.08 Ю 9 н/о н/о +30.2 +19.6 53 +36 +36 очень
душно
1013.5 999.0
16 16.08 Ю 8 н/о н/о +29.1 +20.4 59 +36 +36 очень
душно
1013.1 998.6
17 16.08 ЮВ 5 н/о н/о +28.5 +21.3 65 +36 +36 очень
душно
1013.2 998.7
18 16.08 ЮВ 4 20 км 3/1 1000 м
[Cu hum As op Ci fib]
+27.5 +21.3 69 +35 +35 очень
душно
1013.8 999.2 +31.2
19 16.08 ЮВ 2 н/о н/о +26.0 +20.8 73 +33 +33 очень
душно
1014.6 999.9
20 16.08 ЮВ 1 н/о н/о +24.6 +20.9 80 +31 +31 очень
душно
1015.5 1000.7
21 16.08 С 1 15 км ясно +23.5 +20.6 84 +29 +29 душно 1015.7 1000.9
22 16.08 штиль 0 н/о н/о +22.5 +20.0 86 +29 +29 очень
душно
1015.9 1001.0
23 16.08 З 1 н/о н/о +21.6 +20.1 91 +27 +27 душно 1015.8 1000.9
00 17.08 штиль 0 н/о н/о +20.7 +19.5 93 +25 +25 комфорт 1015.6 1000.6
01 17.08 штиль 0 н/о н/о +20.3 +19.6 96 +24 +24 комфорт 1015.4 1000.4
02 17.08 штиль 0 н/о н/о +19.4 +18.6 95 +22 +22 комфорт 1015.2 1000.2
03 17.08 штиль 0 н/о н/о +19.3 +18.8 97 +21 +21 комфорт 1014.9 999.9
04 17.08 штиль 0 н/о н/о +18.8 +18.3 97 +20 +20 1015.0 999.9
05 17.08 штиль 0 н/о н/о +18.2 +17.6 96 +19 +19 1015.0 999.9
06 17.08 штиль 0 20 км туман местами ясно +20.3 +19.6 96 +24 +25 комфорт 1015.1 1000.1 +18.1
07 17.08 штиль 0 н/о н/о +23.9 +20.1 79 +29 +29 душно 1015.3 1000.5
08 17.08 ЮВ 2 н/о н/о +26.3 +19.5 66 +32 +32 очень
душно
1015.3 1000.6
09 17.08 Ю 2 н/о н/о +29.1 +18.5 53 +34 +34 очень
душно
1015.0 1000.4
10 17.08 Ю 3 н/о н/о +31.8 +16.4 40 +35 +35 очень
душно
1014.4 1000.0
11 17.08 Ю 5 н/о н/о +33.1 +18.6 42 +38 +38 очень
душно
1013.9 999.5
12 17.08 Ю 6 20 км ясно +34.1 +18.5 40 +39 +46 очень
душно
1013.2 998.9
13 17.08 Ю 9 н/о н/о +33.9 +17.5 38 +38 +38 очень
душно
1012.6 998.3
14 17.08 Ю 8 н/о н/о +33.4 +20.0 45 +39 +39 очень
душно
1012.1 997.8
15 17.08 Ю 10 н/о н/о +31.9 +20.2 50 +38 +38 очень
душно
1011.8 997.4
16 17.08 Ю 9 н/о н/о +30.8 +20.4 54 +38 +38 очень
душно
1011.7 997.3
17 17.08 Ю 9 н/о н/о +29.6 +18.4 51 +34 +34 очень
душно
1011.7 997.2
18 17.08 Ю 6 н/о н/о +27.9 +19.1 59 +33 +33 очень
душно
1011.8 997.2 +34.4
19 17.08 Ю 6 н/о н/о +25.8 +20.1 71 +32 +32 очень
душно
1012.2 997.5
20 17.08 Ю 5 н/о н/о +24.9 +20.8 78 +31 +31 очень
душно
1012.9 998.2
21 17.08 Ю 4 н/о н/о +24.2 +21.1 83 +31 +31 очень
душно
1013.1 998.4
22 17.08 Ю 4 н/о н/о +23.5 +20.8 85 +29 +29 душно 1013.2 998.4
23 17.08 Ю 4 н/о н/о +23.2 +21.1 88 +31 +31 очень
душно
1013.3 998.5
00 18.08 Ю 3 н/о н/о +22.0 +20.6 92 +28 +28 душно 1013.2 998.3
01 18.08 ЮЗ 1 н/о н/о +21.6 +20.4 93 +27 +27 душно 1012.9 998.0
02 18.08 ЮЗ 2 н/о н/о +20.5 +19.2 92 +25 +25 комфорт 1012.6 997.7
03 18.08 З 3 н/о н/о +19.6 +18.3 92 +23 +23 комфорт 1012.3 997.3
04 18.08 ЮЗ 3 н/о н/о +19.4 +16.8 85 +22 +22 комфорт 1012.0 997.0
05 18.08 ЮЗ 3 н/о н/о +19.6 +16.3 81 +22 +22 комфорт 1011.9 996.9
06 18.08 ЮЗ 3 н/о н/о +21.2 +17.5 79 +25 +25 комфорт 1011.8 996.9 +19.0
07 18.08 ЮЗ 3 30 км 1/1 1000 м
[Cu hum]
+24.2 +18.4 70 +29 +31 душно 1011.6 996.9
08 18.08 Ю 5 н/о н/о +28.0 +19.5 60 +34 +34 очень
душно
1011.1 996.6
09 18.08 Ю 6 30 км ясно +30.8 +17.8 46 +35 +39 очень
душно
1010.8 996.4
10 18.08 Ю 10 н/о н/о +33.1 +14.8 33 +35 +35 душно 1010.4 996.1
11 18.08 Ю 9 н/о н/о +33.2 +19.8 45 +39 +39 очень
душно
1010.0 995.7
12 18.08 Ю 10 30 км 1/1 1000 м
[Sc]
+33.4 +20.5 47 +40 +41 очень
душно
1009.4 995.1
13 18.08 Ю 12 н/о н/о +32.8 +20.7 49 +40 +40 очень
душно
1009.0 994.7
14 18.08 Ю 11 н/о н/о +32.4 +21.3 52 +40 +40 очень
душно
1008.8 994.5
15 18.08 Ю 10 30 км 1/1 1000 м
[Sc]
+31.6 +21.2 54 +39 +40 очень
душно
1008.8 994.5
16 18.08 Ю 7 н/о н/о +30.4 +21.8 60 +39 +39 очень
душно
1009.3 994.9
17 18.08 ЮВ 4 н/о н/о +29.2 +21.5 63 +37 +37 очень
душно
1010.2 995.7
18 18.08 Ю 4 20 км 4/0 2000 м
[As op Cs]
+27.5 +21.1 68 +35 +35 очень
душно
1010.4 995.9 +33.5
19 18.08 ЮЗ 2 н/о н/о +25.8 +21.5 77 +33 +33 очень
душно
1011.5 996.9
20 18.08 Ю 2 н/о н/о +25.0 +22.1 84 +32 +32 очень
душно
1012.2 997.5
21 18.08 С 1 20 км 4/4 600 м
[]
+24.2 +21.5 85 +31 +31 очень
душно
1012.9 998.2
22 18.08 С 3 н/о н/о +23.7 +22.0 90 +31 +31 очень
душно
1013.8 999.0
23 18.08 СВ 2 н/о н/о +23.8 +22.4 92 +31 +31 очень
душно
1014.5 999.7
00 19.08 С 3 20 км 3/3 600 м
[]
+23.7 +22.5 93 +31 +31 очень
душно
1014.2 999.4
01 19.08 С 3 н/о н/о +23.5 +21.9 91 +30 +30 очень
душно
1014.0 999.2
02 19.08 С 2 н/о н/о +23.1 +21.9 93 +31 +31 очень
душно
1014.2 999.4
03 19.08 С 2 н/о н/о +22.8 +21.8 94 +31 +31 очень
душно
1013.8 999.0
04 19.08 С 2 н/о н/о +22.3 +21.5 95 +29 +29 очень
душно
1013.8 999.0
05 19.08 С 4 н/о н/о +21.8 +19.9 89 +27 +27 душно 1014.3 999.4
06 19.08 С 3 н/о н/о +22.2 +18.8 81 +28 +28 душно 1014.8 999.9 +21.7
07 19.08 СВ 2 н/о н/о +23.0 +18.0 73 +28 +28 душно 1015.0 1000.2

 

Местоположение метеостанции Жерона (Испания): широта 41.90 долгота 2.77 высота над уровнем моря 129 м.

В архиве по умолчанию представлена погода в Жероне за последнюю неделю. Архивные данные за месяц целиком и за предыдущие месяцы, начиная с января 2011 года, Вы можете получить, выбрав интересующий диапазон дат из раскрывающегося списка и нажав кнопку "Ввод!".


*Определитесь, кто Вы:
робот инопланетянин человек

Внимание! Время в таблицах - всемирное. Для получения местного времени необходимо прибавить поправку, которая равна 1 ч.

Смотрите также архив погоды в соседних городах и на ближайших метеорологических станциях:

Погода в Поркересе (Испания) (22 км)
Погода в Санта-Сусанне (Испания) (28 км)
Погода в Ареньс-де-Маре (Испания) (39 км)
Погода в Риполе (Испания) (57 км)
Погода в Барселоне - CMT (Испания) (74 км)
Погода на Мысе Беар (Франция) (75 км)
Погода в Манресе (Испания) (80 км)
Погода в Ла-Молине (Испания) (84 км)
Погода в Барселоне (Испания) (90 км)
Погода в Перпиньяне (Франция) (93 км)

Пояснения к столбцам:

Ветер - указаны скорость ветра в м/с - средняя за 10 мин, порывы в срок и между сроками (в фигурных скобках) и направление, откуда дует ветер: С - северный, СВ - северо-восточный, В - восточный, ЮВ - юго-восточный, Ю - южный, ЮЗ - юго-западный, З - западный, СЗ - северо-западный.
Видимость - горизонтальная дальность видимости в метрах или километрах. При видимости от 1 до 10 км при отсутствии осадков обычно наблюдается дымка, при ухудшении видимости до 1 км и менее - туман. В сухую погоду видимость может ухудшаться дымом, пылью или мглою.
Явления - указаны атмосферные явления, наблюдавшиеся в срок или в последний час перед сроком; фигурными скобками обозначены явления, наблюдавшиеся между сроками (за 1-3 часа до срока); квадратными скобками обозначены град или гололедные отложения с указанием их диаметра в мм.
Облачность - указаны через наклонную черту общая и нижняя облачность в баллах и высота нижней границы облаков в метрах; квадратными скобками обозначены формы облаков: Ci - перистые, Cs - перисто-слоистые, Cc - перисто-кучевые, Ac - высококучевые, As - высокослоистые, Sc - слоисто-кучевые, Ns - слоисто-дождевые, Cu - кучевые, Cb - кучево-дождевые. Подробнее классификацию облаков см. в Атласе облаков (PDF).
T - Температура воздуха - температура, измеренная на высоте 2 м над землей.
Td - Температура точки росы - температура, при понижении до которой содержащийся в воздухе водяной пар достигнет насыщения.
f - Относительная влажность воздуха - влажноcть воздуха, измеренная на высоте 2 м над землей.
Te - Эффективная температура - температура, которую ощущает одетый по сезону человек в тени. Характеристика душности погоды. При расчете учитывается влияние влажности воздуха и скорости ветра на теплоощущения человека.
Tes - Эффективная температура на солнце - температура, которую ощущает человек, с поправкой на солнечный нагрев. Характеристика знойности погоды. Зависит от высоты солнца над горизонтом, облачности и скорости ветра. Ночью, в пасмурную погоду, а также при ветре 12 м/с и более поправка равна нулю.
P - Атмосферное давление - приведенное к уровню моря атмосферное давление.
Po - Атмосферное давление - измеренное на уровне метеостанции атмосферное давление.
Tmin - Минимальная температура - минимум температуры воздуха на высоте 2 м над землей.
Tmax - Максимальная температура - максимум температуры воздуха на высоте 2 м над землей.
R - Количество осадков - Количество выпавших осадков за период времени, мм. При наведении курсора мыши на число - период времени, за который выпало указанное количество осадков.
R24 - Количество осадков - Количество выпавших осадков за 24 часа, мм.
S - Снежный покров - Высота снежного покрова, см. При наведении курсора мыши на число - состояние снежного покрова и степень покрытия местности в баллах.